Date,TemperatureHighF,TemperatureAvgF,TemperatureLowF,DewpointHighF,DewpointAvgF,DewpointLowF,HumidityHigh,HumidityAvg,HumidityLow,PressureMaxIn,PressureMinIn,WindSpeedMaxMPH,WindSpeedAvgMPH,GustSpeedMaxMPH,PrecipitationSumIn
2013-4-1,56.0,52.7,48.8,49.1,46.8,44.1,84,80,77,30.11,29.98,3,1,3,0.00
2013-4-2,68.2,56.3,43.9,50.0,45.4,39.7,86,69,48,30.11,30.03,3,1,3,0.00
2013-4-3,71.1,58.4,47.5,54.4,47.6,40.3,78,68,53,30.10,29.98,3,1,3,0.00
2013-4-4,55.1,51.9,49.1,51.0,48.8,46.6,93,90,77,30.03,29.98,6,2,6,0.00
2013-4-5,59.2,55.0,49.5,50.8,47.5,46.4,91,76,65,30.10,30.03,6,1,7,0.00
2013-4-6,60.5,56.1,50.2,49.0,47.9,46.3,87,74,62,30.12,30.03,5,2,5,0.00
2013-4-7,57.2,52.0,45.4,49.7,45.6,41.6,87,79,71,30.07,29.71,8,2,8,0.00
2013-4-8,64.4,51.9,37.8,41.9,35.0,29.2,90,57,29,30.00,29.71,8,1,8,0.00
2013-4-9,71.1,61.0,45.5,41.8,35.8,29.6,59,40,26,30.12,29.98,9,1,9,0.00
2013-4-10,80.6,64.5,49.9,50.8,42.5,34.4,66,46,30,30.16,29.96,5,1,5,0.00
2013-4-11,74.9,65.8,58.0,43.2,39.2,33.8,55,38,29,29.96,29.83,5,1,5,0.00
2013-4-12,58.3,58.0,57.2,32.4,31.4,30.6,38,36,35,29.85,29.83,1,0,1,0.00
2013-4-17,52.2,51.5,50.2,25.8,24.9,24.3,37,36,34,30.20,30.20,2,0,2,0.00
2013-4-18,73.6,63.0,47.9,37.5,33.9,23.7,50,35,25,30.21,30.14,4,1,4,0.00
2013-4-19,75.1,61.2,49.9,47.6,40.3,34.6,64,47,33,30.20,30.04,2,1,2,0.00
2013-4-20,69.8,61.8,55.3,40.4,37.9,35.7,54,42,33,30.07,29.98,2,0,2,0.00
2013-4-21,82.3,70.2,55.6,42.1,39.8,33.9,45,34,23,30.02,29.96,3,1,3,0.00
2013-4-22,83.3,74.6,60.8,42.0,35.2,27.2,45,25,18,30.00,29.90,5,2,5,0.00
2013-4-23,80.5,66.0,53.6,38.3,27.7,17.9,40,25,16,29.97,29.85,4,1,4,0.00
2013-4-24,83.0,71.2,56.5,34.7,26.9,19.4,42,22,12,29.91,29.83,5,1,5,0.00
2013-4-25,75.8,68.4,58.0,45.9,40.0,19.1,56,37,18,30.08,29.88,3,1,3,0.00
2013-4-26,79.4,69.4,55.1,54.6,49.1,38.6,60,49,40,30.16,30.05,2,1,2,0.00
2013-4-27,83.9,68.7,55.4,57.2,48.1,39.3,64,49,34,30.18,30.06,3,1,3,0.00
2013-4-28,85.0,74.3,61.6,55.9,47.7,43.7,53,40,28,30.06,29.91,3,1,3,0.00
2013-4-29,85.3,73.9,61.9,49.0,45.7,40.8,47,38,25,29.94,29.78,3,1,3,0.00
2013-4-30,82.4,72.2,60.8,44.0,30.9,13.1,49,24,15,29.94,29.77,5,1,5,0.00